STARLINK-30142, 56836

Orbit data source: Space-Track

STARLINK-30142, 56836 is a payload satellite owned by SpaceX/Seattle (US) in LEO that was launched on Sun, 04 Jun 2023 UTC via an FALCON 9 launch vehicle from the Air Force Eastern Test Range (AFETR). Payload-class satellites include a variety of spacecraft equipped with specific instruments for various scientific and technological missions. These include communications satellites like Starlink; space stations such as the ISS; scientific satellites like the Hubble; Earth observation satellites from companies like Planet Labs, Umbra, and HawkEye 360; GPS; miniature CubeSats for education and research; and military/defense satellites.

Loading next visibility...
Identifier
56836, 2023-079P
Orbit
LEO
Country
Flag of USUS
Related business
Manufacturer
SpaceX/Seattle
Mission
Operational Commercial Communications
Bus & Motor
STARLINK V2M, Unknown motor
Mass
730 kg wet, ~700 kg dry
Launch date (UTC)
2023-06-04 (3 years ago)
Launch vehicle
FALCON 9
Launch site
Air Force Eastern Test Range (AFETR)
Object type
Payload
Rocket body
Debris
Shape & HBR
Box + 2 Pan, 17.7 m
Radar Cross Section
33.884 m², Large (>1 m²)

Expand to show TLE details & history
Last TLE update: 2 days ago

TLE from 2 days ago
0 STARLINK-30142
1 56836U 23079P   26171.26373157 -.00001047  00000-0 -28531-4 0  9997
2 56836  43.0038 244.5278 0001318 253.3978 106.6729 15.27581016168619
Epoch: 2026-06-20T06:19Z
TLE epoch observation values (Epoch: 2026-06-20T06:19:46.407Z)
Latitude
-0.00003°
Longitude
-118.89645°
Altitude
483.081 km
Speed
7.626 km/s
True Right ascension
16h 18m 06s
True Declination
0° 00' 00"
Sunlit
Object was in full shadow at epoch
Visualization orbit readout
Latitude
Unknown
Longitude
Unknown
Altitude
Unknown
Speed
Unknown
Apparent Right ascension
Unknown
Apparent Declination
Unknown
Sunlit
N/A
Visualization observer readout
Local Sidereal Time
00:31:35
Azimuth
Unknown
Elevation
Unknown
Doppler factor
Unknown
Orbital elements
Apogee altitude
485.895 km
Perigee altitude
484.086 km
Semi-major axis
6,863.128 km
Eccentricity
0.00013
Inclination
43.0038°
RAAN
244.5278°
Arg. of periapsis
253.3978°
True anomaly
106.68737°
Mean anomaly
106.6729°
Eccentric anomaly
106.68013°
Mean motion
3.81733 °/min
Orbital period
94.31 mins
BSTAR
-0.000028531
Loading maneuver chart data...
Computing Atmospheric mass density...
Loading historical data...
Loading historical data...
Loading historical data...
Loading historical data...
Loading historical data...
Loading historical data...
Loading historical data...

Documentation

Showing up to 5 results
|